TimePDT,TemperatureF,Dew PointF,Humidity,Sea Level PressureIn,VisibilityMPH,Wind Direction,Wind SpeedMPH,Gust SpeedMPH,PrecipitationIn,Events,Conditions,WindDirDegrees,DateUTC
12:53 AM,53.1,45.0,74,30.08,10.0,Calm,Calm,-,N/A,,Clear,0,2012-03-27 07:53:00
1:53 AM,52.0,45.0,77,30.07,10.0,Calm,Calm,-,N/A,,Clear,0,2012-03-27 08:53:00
2:53 AM,50.0,44.1,80,30.08,10.0,Calm,Calm,-,N/A,,Clear,0,2012-03-27 09:53:00
3:53 AM,50.0,44.1,80,30.06,10.0,Calm,Calm,-,N/A,,Clear,0,2012-03-27 10:53:00
4:53 AM,50.0,43.0,77,30.06,10.0,Calm,Calm,-,N/A,,Clear,0,2012-03-27 11:53:00
5:53 AM,48.9,43.0,80,30.07,8.0,Calm,Calm,-,N/A,,Clear,0,2012-03-27 12:53:00
6:53 AM,46.9,42.1,83,30.09,6.0,Calm,Calm,-,N/A,,Haze,0,2012-03-27 13:53:00
7:53 AM,51.1,44.1,77,30.10,7.0,East,3.5,-,N/A,,Clear,90,2012-03-27 14:53:00
8:53 AM,55.9,46.0,69,30.11,8.0,ESE,3.5,-,N/A,,Clear,120,2012-03-27 15:53:00
9:53 AM,60.1,46.0,60,30.10,8.0,Calm,Calm,-,N/A,,Clear,0,2012-03-27 16:53:00
10:53 AM,63.0,46.0,54,30.09,10.0,Calm,Calm,-,N/A,,Clear,0,2012-03-27 17:53:00
11:53 AM,64.9,44.1,47,30.09,10.0,Calm,Calm,-,N/A,,Clear,0,2012-03-27 18:53:00
12:53 PM,66.9,46.9,49,30.06,10.0,West,6.9,-,N/A,,Clear,260,2012-03-27 19:53:00
1:53 PM,69.1,44.1,40,30.06,10.0,Variable,3.5,-,N/A,,Clear,0,2012-03-27 20:53:00
2:53 PM,70.0,45.0,41,30.04,10.0,Variable,6.9,-,N/A,,Clear,0,2012-03-27 21:53:00
3:53 PM,70.0,42.1,36,30.04,10.0,Variable,4.6,-,N/A,,Clear,0,2012-03-27 22:53:00
4:53 PM,66.9,39.0,36,30.03,10.0,Variable,6.9,17.3,N/A,,Clear,0,2012-03-27 23:53:00
5:53 PM,64.9,39.0,39,30.04,10.0,West,8.1,-,N/A,,Clear,280,2012-03-28 00:53:00
6:53 PM,61.0,39.9,46,30.04,10.0,WNW,5.8,-,N/A,,Clear,290,2012-03-28 01:53:00
7:53 PM,59.0,41.0,51,30.05,10.0,Variable,4.6,-,N/A,,Clear,0,2012-03-28 02:53:00
8:53 PM,57.0,45.0,64,30.07,10.0,Calm,Calm,-,N/A,,Clear,0,2012-03-28 03:53:00
9:53 PM,55.9,45.0,67,30.07,10.0,WNW,3.5,-,N/A,,Clear,290,2012-03-28 04:53:00
10:53 PM,55.9,45.0,67,30.09,10.0,Calm,Calm,-,N/A,,Clear,0,2012-03-28 05:53:00
11:53 PM,54.0,45.0,72,30.09,10.0,Calm,Calm,-,N/A,,Clear,0,2012-03-28 06:53:00